| time (UTC) | temp F | wind direction | speed MPH | gust MPH | rain 1hr in | rain 24hr in | rain mn in | humidity % | barometer mb |
| 20260831154052 | 64 | 321 | 6.0 | 11.0 | 0.00 | 0.27 | 0.01 | 72 | 1026.2 |
| 20260831153603 | 64 | 322 | 6.0 | 11.0 | 0.00 | 0.27 | 0.01 | 72 | 1026.3 |
| 20260831153004 | 64 | 338 | 4.0 | 10.0 | 0.00 | 0.27 | 0.01 | 73 | 1026.3 |
| 20260831152601 | 64 | 309 | 6.0 | 10.0 | 0.00 | 0.27 | 0.01 | 73 | 1026.4 |
| 20260831152003 | 64 | 341 | 5.0 | 8.0 | 0.00 | 0.27 | 0.01 | 73 | 1026.5 |
| 20260831151608 | 64 | 315 | 5.0 | 8.0 | 0.00 | 0.27 | 0.01 | 74 | 1026.5 |
| 20260831151053 | 63 | 310 | 3.0 | 10.0 | 0.00 | 0.27 | 0.01 | 75 | 1026.6 |
| 20260831150559 | 63 | 304 | 5.0 | 11.0 | 0.00 | 0.27 | 0.01 | 75 | 1026.6 |
| 20260831150055 | 63 | 297 | 5.0 | 12.0 | 0.00 | 0.27 | 0.01 | 75 | 1026.6 |
| 20260831145559 | 63 | 263 | 7.0 | 13.0 | 0.00 | 0.27 | 0.01 | 75 | 1026.5 |
| 20260831145002 | 64 | 284 | 8.0 | 13.0 | 0.00 | 0.27 | 0.01 | 73 | 1026.4 |
| 20260831144511 | 65 | 294 | 4.0 | 10.0 | 0.00 | 0.27 | 0.01 | 71 | 1026.5 |
| 20260831144017 | 65 | 304 | 3.0 | 7.0 | 0.00 | 0.27 | 0.01 | 71 | 1026.5 |
| 20260831143526 | 64 | 261 | 3.0 | 6.0 | 0.00 | 0.27 | 0.01 | 72 | 1026.4 |
| 20260831143032 | 64 | 265 | 1.0 | 3.0 | 0.00 | 0.27 | 0.01 | 71 | 1026.2 |
| 20260831142541 | 64 | 120 | 0.0 | 7.0 | 0.00 | 0.27 | 0.01 | 71 | 1026.0 |
| 20260831142049 | 64 | 83 | 2.0 | 8.0 | 0.00 | 0.27 | 0.01 | 72 | 1025.7 |
| 20260831141603 | 63 | 80 | 4.0 | 8.0 | 0.00 | 0.27 | 0.01 | 72 | 1025.5 |
| 20260831141107 | 63 | 115 | 3.0 | 9.0 | 0.00 | 0.27 | 0.01 | 72 | 1025.6 |
| 20260831140506 | 63 | 98 | 3.0 | 10.0 | 0.00 | 0.27 | 0.01 | 74 | 1025.4 |
| 20260831140010 | 62 | 118 | 5.0 | 10.0 | 0.00 | 0.27 | 0.01 | 73 | 1025.3 |
| 20260831135605 | 62 | 76 | 7.0 | 11.0 | 0.00 | 0.27 | 0.01 | 74 | 1025.2 |
| 20260831135054 | 62 | 78 | 6.0 | 11.0 | 0.00 | 0.27 | 0.01 | 74 | 1025.2 |
| 20260831134603 | 62 | 107 | 6.0 | 12.0 | 0.00 | 0.27 | 0.01 | 74 | 1025.1 |
| 20260831134053 | 62 | 69 | 6.0 | 12.0 | 0.00 | 0.27 | 0.01 | 75 | 1024.8 |
| 20260831133602 | 61 | 138 | 4.0 | 11.0 | 0.00 | 0.27 | 0.01 | 75 | 1024.9 |
| 20260831133004 | 61 | 69 | 5.0 | 10.0 | 0.00 | 0.27 | 0.01 | 76 | 1024.7 |
| 20260831132559 | 61 | 107 | 5.0 | 10.0 | 0.00 | 0.27 | 0.01 | 76 | 1024.7 |
| 20260831132002 | 60 | 93 | 5.0 | 11.0 | 0.00 | 0.27 | 0.01 | 77 | 1024.6 |
| 20260831131617 | 60 | 109 | 5.0 | 11.0 | 0.00 | 0.27 | 0.01 | 77 | 1024.6 |
| 20260831131003 | 60 | 88 | 3.0 | 7.0 | 0.00 | 0.27 | 0.01 | 78 | 1024.5 |
| 20260831130601 | 60 | 89 | 2.0 | 6.0 | 0.00 | 0.27 | 0.01 | 78 | 1024.6 |
| 20260831130053 | 60 | 117 | 3.0 | 8.0 | 0.00 | 0.27 | 0.01 | 78 | 1024.5 |
| 20260831125558 | 60 | 94 | 2.0 | 8.0 | 0.00 | 0.27 | 0.01 | 77 | 1024.4 |
| 20260831125050 | 60 | 76 | 4.0 | 8.0 | 0.00 | 0.27 | 0.01 | 77 | 1024.3 |
| 20260831124539 | 60 | 73 | 3.0 | 8.0 | 0.00 | 0.27 | 0.01 | 77 | 1024.2 |
| 20260831124048 | 60 | 107 | 3.0 | 13.0 | 0.00 | 0.27 | 0.01 | 77 | 1024.2 |
| 20260831123556 | 61 | 84 | 5.0 | 13.0 | 0.00 | 0.27 | 0.01 | 77 | 1024.2 |
| 20260831123100 | 61 | 126 | 7.0 | 12.0 | 0.00 | 0.27 | 0.01 | 76 | 1024.1 |
| 20260831122552 | 61 | 99 | 6.0 | 11.0 | 0.00 | 0.27 | 0.01 | 76 | 1024.2 |
| 20260831122100 | 61 | 130 | 6.0 | 10.0 | 0.00 | 0.27 | 0.01 | 75 | 1024.4 |
| 20260831121602 | 61 | 147 | 3.0 | 6.0 | 0.00 | 0.27 | 0.01 | 74 | 1024.4 |
| 20260831121044 | 61 | 71 | 1.0 | 9.0 | 0.00 | 0.27 | 0.01 | 74 | 1024.5 |
| 20260831120551 | 62 | 36 | 3.0 | 10.0 | 0.00 | 0.27 | 0.01 | 73 | 1024.5 |
| 20260831120100 | 62 | 51 | 3.0 | 12.0 | 0.00 | 0.27 | 0.01 | 73 | 1024.5 |
| 20260831115502 | 62 | 53 | 5.0 | 12.0 | 0.00 | 0.27 | 0.01 | 73 | 1024.2 |
| 20260831115057 | 62 | 65 | 6.0 | 12.0 | 0.00 | 0.27 | 0.01 | 72 | 1024.2 |
| 20260831114605 | 62 | 50 | 5.0 | 10.0 | 0.00 | 0.27 | 0.01 | 73 | 1024.0 |
| 20260831114058 | 62 | 108 | 5.0 | 10.0 | 0.00 | 0.27 | 0.01 | 72 | 1024.0 |
| 20260831113501 | 62 | 82 | 4.0 | 9.0 | 0.00 | 0.27 | 0.01 | 72 | 1023.9 |
| 20260831113059 | 62 | 59 | 4.0 | 8.0 | 0.00 | 0.27 | 0.01 | 71 | 1023.9 |
| 20260831112555 | 62 | 64 | 4.0 | 11.0 | 0.00 | 0.27 | 0.01 | 71 | 1023.9 |
| 20260831112040 | 62 | 82 | 5.0 | 15.0 | 0.00 | 0.27 | 0.01 | 71 | 1023.8 |
| 20260831111555 | 62 | 63 | 8.0 | 20.0 | 0.00 | 0.27 | 0.01 | 70 | 1023.6 |
| 20260831111043 | 62 | 57 | 12.0 | 22.0 | 0.00 | 0.27 | 0.01 | 70 | 1023.5 |
| 20260831110549 | 62 | 61 | 13.0 | 22.0 | 0.00 | 0.27 | 0.01 | 70 | 1023.3 |
| 20260831105501 | 62 | 46 | 13.0 | 19.0 | 0.00 | 0.27 | 0.01 | 71 | 1023.7 |
| 20260831105058 | 62 | 53 | 12.0 | 18.0 | 0.00 | 0.27 | 0.01 | 71 | 1023.8 |
| 20260831104604 | 62 | 46 | 11.0 | 20.0 | 0.00 | 0.27 | 0.01 | 71 | 1023.9 |
| 20260831104056 | 62 | 41 | 12.0 | 20.0 | 0.00 | 0.27 | 0.01 | 71 | 1023.9 |
| 20260831103600 | 62 | 56 | 10.0 | 15.0 | 0.00 | 0.27 | 0.01 | 75 | 1024.5 |
| 20260831103004 | 62 | 54 | 7.0 | 10.0 | 0.00 | 0.27 | 0.01 | 76 | 1024.8 |
| 20260831102559 | 62 | 80 | 5.0 | 10.0 | 0.00 | 0.27 | 0.01 | 76 | 1025.0 |
| 20260831102003 | 62 | 45 | 3.0 | 6.0 | 0.00 | 0.27 | 0.01 | 77 | 1025.1 |
| 20260831101602 | 62 | 37 | 3.0 | 5.0 | 0.00 | 0.27 | 0.01 | 78 | 1025.1 |
| 20260831101002 | 62 | 31 | 3.0 | 5.0 | 0.00 | 0.27 | 0.01 | 79 | 1025.2 |
| 20260831100508 | 63 | 9 | 1.0 | 2.0 | 0.00 | 0.27 | 0.01 | 78 | 1025.4 |
| 20260831100037 | 63 | 9 | 0.0 | 2.0 | 0.00 | 0.27 | 0.01 | 78 | 1025.4 |
| 20260831095546 | 63 | 84 | 1.0 | 3.0 | 0.00 | 0.27 | 0.01 | 77 | 1025.4 |
| 20260831095056 | 63 | 145 | 1.0 | 3.0 | 0.00 | 0.27 | 0.01 | 76 | 1025.5 |
| 20260831094601 | 64 | 150 | 2.0 | 3.0 | 0.00 | 0.27 | 0.01 | 73 | 1025.4 |
| 20260831094001 | 64 | 164 | 0.0 | 5.0 | 0.00 | 0.27 | 0.01 | 72 | 1025.5 |
| 20260831093558 | 64 | 164 | 2.0 | 5.0 | 0.00 | 0.27 | 0.01 | 70 | 1025.5 |
| 20260831093105 | 64 | 128 | 1.0 | 5.0 | 0.00 | 0.27 | 0.01 | 67 | 1025.5 |
| 20260831092601 | 64 | 69 | 1.0 | 5.0 | 0.01 | 0.27 | 0.01 | 66 | 1025.4 |
| 20260831092106 | 64 | 41 | 2.0 | 5.0 | 0.01 | 0.27 | 0.01 | 68 | 1025.5 |
| 20260831091512 | 64 | 59 | 2.0 | 8.0 | 0.01 | 0.27 | 0.01 | 67 | 1025.4 |
| 20260831091016 | 63 | 58 | 4.0 | 6.0 | 0.01 | 0.27 | 0.01 | 67 | 1025.4 |
| 20260831090524 | 63 | 44 | 3.0 | 9.0 | 0.01 | 0.27 | 0.01 | 68 | 1025.5 |
| 20260831090032 | 63 | 55 | 4.0 | 9.0 | 0.01 | 0.27 | 0.01 | 70 | 1025.5 |
| 20260831085543 | 62 | 40 | 5.0 | 9.0 | 0.01 | 0.27 | 0.01 | 72 | 1025.4 |
| 20260831085031 | 62 | 63 | 4.0 | 9.0 | 0.01 | 0.27 | 0.01 | 73 | 1025.5 |
| 20260831084539 | 62 | 61 | 3.0 | 9.0 | 0.01 | 0.27 | 0.01 | 75 | 1025.5 |
| 20260831084048 | 62 | 36 | 5.0 | 11.0 | 0.01 | 0.27 | 0.01 | 77 | 1025.4 |
| 20260831083556 | 62 | 17 | 6.0 | 12.0 | 0.01 | 0.27 | 0.01 | 78 | 1025.4 |
| 20260831083053 | 63 | 9 | 4.0 | 13.0 | 0.01 | 0.27 | 0.01 | 76 | 1025.4 |
| 20260831082555 | 63 | 360 | 5.0 | 11.0 | 0.00 | 0.26 | 0.00 | 74 | 1025.6 |
| 20260831082048 | 63 | 355 | 3.0 | 10.0 | 0.00 | 0.26 | 0.00 | 74 | 1025.7 |
| 20260831081556 | 63 | 23 | 5.0 | 10.0 | 0.00 | 0.26 | 0.00 | 75 | 1025.6 |
| 20260831081046 | 63 | 347 | 4.0 | 9.0 | 0.00 | 0.26 | 0.00 | 76 | 1025.8 |
| 20260831080537 | 64 | 5 | 3.0 | 5.0 | 0.00 | 0.26 | 0.00 | 75 | 1025.6 |
| 20260831080045 | 64 | 26 | 2.0 | 5.0 | 0.00 | 0.26 | 0.00 | 74 | 1025.4 |
| 20260831075541 | 64 | 56 | 2.0 | 9.0 | 0.00 | 0.26 | 0.00 | 74 | 1025.3 |
| 20260831075046 | 64 | 68 | 4.0 | 9.0 | 0.00 | 0.26 | 0.00 | 74 | 1025.1 |
| 20260831074554 | 64 | 76 | 4.0 | 7.0 | 0.00 | 0.26 | 0.00 | 73 | 1025.1 |
| 20260831074104 | 64 | 77 | 3.0 | 8.0 | 0.00 | 0.26 | 0.00 | 74 | 1025.1 |
| 20260831073555 | 64 | 60 | 3.0 | 6.0 | 0.00 | 0.26 | 0.00 | 73 | 1025.1 |
| 20260831073103 | 64 | 82 | 3.0 | 9.0 | 0.00 | 0.26 | 0.00 | 73 | 1025.1 |
| 20260831072557 | 64 | 82 | 5.0 | 11.0 | 0.00 | 0.26 | 0.00 | 73 | 1025.1 |
| 20260831072048 | 64 | 82 | 5.0 | 11.0 | 0.00 | 0.26 | 0.00 | 72 | 1025.0 |
| 20260831071556 | 63 | 91 | 4.0 | 8.0 | 0.00 | 0.26 | 0.00 | 71 | 1025.1 |
| 20260831071053 | 63 | 80 | 3.0 | 12.0 | 0.00 | 0.26 | 0.00 | 71 | 1025.2 |
| 20260831070557 | 63 | 96 | 3.0 | 12.0 | 0.00 | 0.26 | 0.00 | 70 | 1025.0 |
| 20260831070050 | 63 | 117 | 6.0 | 11.0 | 0.00 | 0.26 | 0.00 | 70 | 1024.8 |
| 20260831065540 | 63 | 98 | 3.0 | 8.0 | 0.00 | 0.26 | 0.00 | 71 | 1024.8 |
| 20260831065049 | 63 | 105 | 4.0 | 8.0 | 0.00 | 0.26 | 0.00 | 71 | 1024.7 |
| 20260831064542 | 63 | 103 | 2.0 | 6.0 | 0.00 | 0.26 | 0.00 | 71 | 1024.7 |
| 20260831064051 | 63 | 111 | 2.0 | 4.0 | 0.00 | 0.26 | 0.00 | 71 | 1024.7 |
| 20260831063557 | 63 | 131 | 1.0 | 3.0 | 0.00 | 0.26 | 0.00 | 69 | 1024.6 |
| 20260831063000 | 63 | 104 | 1.0 | 4.0 | 0.00 | 0.26 | 0.00 | 69 | 1024.5 |
| 20260831062558 | 63 | 101 | 2.0 | 4.0 | 0.00 | 0.26 | 0.00 | 68 | 1024.2 |
| 20260831062001 | 63 | 38 | 1.0 | 4.0 | 0.00 | 0.26 | 0.00 | 69 | 1024.0 |
| 20260831061558 | 63 | 9 | 1.0 | 4.0 | 0.00 | 0.26 | 0.00 | 70 | 1023.9 |
| 20260831061003 | 64 | 5 | 0.0 | 2.0 | 0.00 | 0.26 | 0.00 | 72 | 1023.9 |
| 20260831060507 | 64 | 9 | 0.0 | 3.0 | 0.00 | 0.26 | 0.00 | 73 | 1024.0 |
| 20260831060001 | 64 | 5 | 1.0 | 3.0 | 0.00 | 0.26 | 0.00 | 72 | 1023.9 |
| 20260831055509 | 64 | 71 | 0.0 | 3.0 | 0.00 | 0.26 | 0.26 | 72 | 1024.0 |
| 20260831055104 | 64 | 102 | 1.0 | 3.0 | 0.00 | 0.26 | 0.26 | 71 | 1024.0 |
| 20260831054509 | 64 | 125 | 1.0 | 6.0 | 0.00 | 0.26 | 0.26 | 70 | 1024.1 |
| 20260831054103 | 65 | 106 | 2.0 | 7.0 | 0.00 | 0.26 | 0.26 | 69 | 1024.1 |
| 20260831053558 | 65 | 101 | 3.0 | 7.0 | 0.00 | 0.26 | 0.26 | 67 | 1024.0 |
| 20260831053105 | 65 | 49 | 4.0 | 10.0 | 0.00 | 0.26 | 0.26 | 67 | 1023.9 |
| 20260831052557 | 65 | 67 | 5.0 | 11.0 | 0.00 | 0.26 | 0.26 | 67 | 1023.9 |
| 20260831052046 | 65 | 63 | 5.0 | 12.0 | 0.00 | 0.26 | 0.26 | 67 | 1023.9 |
| 20260831051554 | 65 | 47 | 5.0 | 12.0 | 0.00 | 0.26 | 0.26 | 67 | 1023.9 |
| 20260831051103 | 65 | 50 | 6.0 | 12.0 | 0.00 | 0.26 | 0.26 | 68 | 1023.9 |
| 20260831050504 | 66 | 77 | 6.0 | 12.0 | 0.00 | 0.26 | 0.26 | 67 | 1023.9 |
| 20260831050101 | 66 | 87 | 7.0 | 15.0 | 0.00 | 0.26 | 0.26 | 66 | 1023.9 |
| 20260831045504 | 66 | 71 | 6.0 | 18.0 | 0.00 | 0.26 | 0.26 | 67 | 1023.9 |
| 20260831045101 | 66 | 30 | 7.0 | 19.0 | 0.00 | 0.26 | 0.26 | 66 | 1023.8 |
| 20260831044504 | 66 | 47 | 10.0 | 16.0 | 0.00 | 0.26 | 0.26 | 66 | 1023.8 |
| 20260831044101 | 66 | 46 | 7.0 | 16.0 | 0.00 | 0.26 | 0.26 | 67 | 1023.7 |
| 20260831043504 | 66 | 41 | 10.0 | 19.0 | 0.00 | 0.26 | 0.26 | 66 | 1023.8 |
| 20260831043101 | 66 | 69 | 12.0 | 23.0 | 0.00 | 0.26 | 0.26 | 66 | 1023.8 |
| 20260831042503 | 66 | 20 | 13.0 | 19.0 | 0.00 | 0.26 | 0.26 | 67 | 1023.9 |
| 20260831042011 | 66 | 65 | 11.0 | 19.0 | 0.00 | 0.26 | 0.26 | 68 | 1023.9 |
| 20260831041615 | 65 | 63 | 11.0 | 19.0 | 0.00 | 0.26 | 0.26 | 68 | 1024.0 |
| 20260831041008 | 65 | 65 | 11.0 | 18.0 | 0.00 | 0.26 | 0.26 | 71 | 1023.9 |
| 20260831040515 | 65 | 55 | 7.0 | 13.0 | 0.00 | 0.26 | 0.26 | 74 | 1024.0 |
| 20260831040035 | 65 | 80 | 5.0 | 10.0 | 0.00 | 0.26 | 0.26 | 74 | 1024.1 |
| 20260831035530 | 65 | 63 | 4.0 | 8.0 | 0.00 | 0.26 | 0.26 | 74 | 1024.2 |
| 20260831035039 | 65 | 98 | 4.0 | 8.0 | 0.00 | 0.26 | 0.26 | 74 | 1024.3 |
| 20260831034549 | 65 | 86 | 4.0 | 7.0 | 0.00 | 0.26 | 0.26 | 73 | 1024.6 |
| 20260831034055 | 65 | 128 | 2.0 | 6.0 | 0.00 | 0.26 | 0.26 | 73 | 1024.7 |
| 20260831033606 | 65 | 96 | 2.0 | 8.0 | 0.00 | 0.26 | 0.26 | 72 | 1024.6 |
| 20260831033006 | 65 | 86 | 3.0 | 10.0 | 0.00 | 0.26 | 0.26 | 72 | 1024.6 |
| 20260831032604 | 65 | 71 | 5.0 | 10.0 | 0.00 | 0.26 | 0.26 | 71 | 1024.5 |
| 20260831032006 | 65 | 78 | 4.0 | 10.0 | 0.00 | 0.26 | 0.26 | 74 | 1024.3 |
| 20260831031606 | 65 | 70 | 6.0 | 10.0 | 0.00 | 0.26 | 0.26 | 74 | 1024.3 |
| 20260831031054 | 65 | 80 | 5.0 | 11.0 | 0.00 | 0.26 | 0.26 | 73 | 1024.3 |
| 20260831030601 | 65 | 88 | 4.0 | 17.0 | 0.00 | 0.26 | 0.26 | 74 | 1024.2 |
| 20260831030054 | 65 | 62 | 8.0 | 20.0 | 0.00 | 0.26 | 0.26 | 73 | 1024.2 |
| 20260831025542 | 65 | 40 | 11.0 | 20.0 | 0.00 | 0.26 | 0.26 | 73 | 1024.0 |
| 20260831025050 | 65 | 17 | 9.0 | 15.0 | 0.00 | 0.26 | 0.26 | 73 | 1024.0 |
| 20260831024559 | 66 | 23 | 9.0 | 14.0 | 0.00 | 0.26 | 0.26 | 72 | 1023.9 |
| 20260831024001 | 66 | 27 | 3.0 | 11.0 | 0.00 | 0.26 | 0.26 | 73 | 1024.0 |
| 20260831023555 | 67 | 355 | 4.0 | 13.0 | 0.00 | 0.26 | 0.26 | 73 | 1023.8 |
| 20260831023104 | 67 | 346 | 9.0 | 13.0 | 0.00 | 0.26 | 0.26 | 73 | 1023.8 |
| 20260831022556 | 67 | 5 | 4.0 | 8.0 | 0.00 | 0.26 | 0.26 | 73 | 1023.4 |
| 20260831022105 | 67 | 19 | 3.0 | 7.0 | 0.00 | 0.26 | 0.26 | 76 | 1023.4 |
| 20260831021556 | 67 | 11 | 4.0 | 7.0 | 0.00 | 0.26 | 0.26 | 77 | 1023.1 |
| 20260831021105 | 67 | 319 | 3.0 | 6.0 | 0.00 | 0.26 | 0.26 | 79 | 1023.2 |
| 20260831020506 | 67 | 323 | 3.0 | 9.0 | 0.00 | 0.26 | 0.26 | 78 | 1022.8 |
| 20260831015553 | 67 | 326 | 0.0 | 4.0 | 0.00 | 0.26 | 0.26 | 80 | 1022.4 |
| 20260831015045 | 67 | 134 | 0.0 | 5.0 | 0.02 | 0.26 | 0.26 | 76 | 1022.2 |
| 20260831014554 | 67 | 128 | 1.0 | 6.0 | 0.03 | 0.26 | 0.26 | 74 | 1021.9 |
| 20260831014102 | 67 | 161 | 3.0 | 6.0 | 0.03 | 0.26 | 0.26 | 75 | 1021.7 |
| 20260831013505 | 66 | 355 | 0.0 | 2.0 | 0.03 | 0.26 | 0.26 | 73 | 1021.6 |
| 20260831013109 | 66 | 355 | 0.0 | 2.0 | 0.03 | 0.26 | 0.26 | 77 | 1021.7 |
| 20260831012506 | 66 | 355 | 0.0 | 4.0 | 0.03 | 0.26 | 0.26 | 79 | 1021.6 |
| 20260831012103 | 66 | 355 | 0.0 | 4.0 | 0.03 | 0.26 | 0.26 | 79 | 1021.6 |
| 20260831011507 | 66 | 355 | 2.0 | 6.0 | 0.03 | 0.26 | 0.26 | 79 | 1021.5 |
| 20260831011101 | 66 | 360 | 2.0 | 8.0 | 0.03 | 0.26 | 0.26 | 81 | 1021.5 |
| 20260831010557 | 66 | 313 | 3.0 | 16.0 | 0.03 | 0.26 | 0.26 | 79 | 1021.7 |
| 20260831010044 | 66 | 302 | 7.0 | 16.0 | 0.03 | 0.26 | 0.26 | 76 | 1021.7 |
| 20260831005552 | 67 | 302 | 9.0 | 16.0 | 0.03 | 0.26 | 0.26 | 74 | 1021.9 |
| 20260831005100 | 68 | 281 | 4.0 | 13.0 | 0.01 | 0.24 | 0.24 | 78 | 1022.1 |
| 20260831004503 | 67 | 297 | 7.0 | 13.0 | 0.00 | 0.23 | 0.23 | 80 | 1022.1 |
| 20260831004058 | 67 | 319 | 1.0 | 3.0 | 0.00 | 0.23 | 0.23 | 78 | 1021.7 |
| 20260831003501 | 67 | 14 | 1.0 | 5.0 | 0.00 | 0.23 | 0.23 | 79 | 1021.5 |
| 20260831003057 | 67 | 360 | 2.0 | 6.0 | 0.04 | 0.23 | 0.23 | 79 | 1021.5 |
| 20260831002546 | 66 | 24 | 3.0 | 6.0 | 0.14 | 0.23 | 0.23 | 76 | 1021.5 |
| 20260831002054 | 66 | 59 | 3.0 | 6.0 | 0.20 | 0.23 | 0.23 | 79 | 1021.6 |
| 20260831001546 | 66 | 22 | 3.0 | 7.0 | 0.23 | 0.23 | 0.23 | 81 | 1021.6 |
| 20260831001042 | 66 | 26 | 4.0 | 8.0 | 0.23 | 0.23 | 0.23 | 81 | 1021.7 |
| 20260831000547 | 65 | 43 | 3.0 | 8.0 | 0.23 | 0.23 | 0.23 | 82 | 1021.7 |
| 20260831000040 | 65 | 9 | 4.0 | 10.0 | 0.23 | 0.23 | 0.23 | 80 | 1021.7 |
| 20260830235551 | 65 | 21 | 5.0 | 10.0 | 0.23 | 0.23 | 0.23 | 77 | 1021.8 |
| 20260830235057 | 65 | 30 | 6.0 | 11.0 | 0.23 | 0.23 | 0.23 | 80 | 1021.9 |
| 20260830234601 | 65 | 15 | 4.0 | 12.0 | 0.23 | 0.23 | 0.23 | 81 | 1021.9 |
| 20260830234054 | 64 | 355 | 7.0 | 14.0 | 0.23 | 0.23 | 0.23 | 82 | 1022.0 |
| 20260830233601 | 65 | 5 | 11.0 | 17.0 | 0.23 | 0.23 | 0.23 | 79 | 1022.2 |
| 20260830233004 | 66 | 321 | 13.0 | 26.0 | 0.17 | 0.17 | 0.17 | 76 | 1022.7 |
| 20260830232605 | 68 | 319 | 15.0 | 37.0 | 0.09 | 0.09 | 0.09 | 69 | 1022.6 |
| 20260830232005 | 78 | 311 | 24.0 | 34.0 | 0.01 | 0.01 | 0.01 | 47 | 1021.8 |
| 20260830231604 | 84 | 275 | 4.0 | 7.0 | 0.00 | 0.00 | 0.00 | 32 | 1021.8 |
| 20260830231051 | 84 | 229 | 1.0 | 6.0 | 0.00 | 0.00 | 0.00 | 31 | 1021.6 |
| 20260830230600 | 84 | 167 | 3.0 | 7.0 | 0.00 | 0.00 | 0.00 | 31 | 1021.5 |
| 20260830230051 | 85 | 133 | 2.0 | 6.0 | 0.00 | 0.00 | 0.00 | 31 | 1021.3 |
| 20260830225541 | 85 | 182 | 3.0 | 6.0 | 0.00 | 0.00 | 0.00 | 30 | 1021.4 |
| 20260830225049 | 85 | 171 | 1.0 | 9.0 | 0.00 | 0.00 | 0.00 | 30 | 1021.5 |
| 20260830224550 | 86 | 156 | 5.0 | 11.0 | 0.00 | 0.00 | 0.00 | 30 | 1021.5 |
| 20260830224050 | 86 | 148 | 3.0 | 11.0 | 0.00 | 0.00 | 0.00 | 30 | 1021.6 |
| 20260830223559 | 86 | 159 | 4.0 | 10.0 | 0.00 | 0.00 | 0.00 | 30 | 1021.6 |
| 20260830223109 | 86 | 196 | 5.0 | 10.0 | 0.00 | 0.00 | 0.00 | 30 | 1021.7 |
| 20260830222556 | 86 | 178 | 5.0 | 12.0 | 0.00 | 0.00 | 0.00 | 29 | 1021.7 |
| 20260830222106 | 87 | 157 | 6.0 | 14.0 | 0.00 | 0.00 | 0.00 | 29 | 1021.7 |
| 20260830221607 | 88 | 169 | 8.0 | 14.0 | 0.00 | 0.00 | 0.00 | 28 | 1021.8 |
| 20260830221105 | 89 | 170 | 4.0 | 14.0 | 0.00 | 0.00 | 0.00 | 28 | 1021.8 |
| 20260830220507 | 88 | 244 | 1.0 | 8.0 | 0.00 | 0.00 | 0.00 | 28 | 1021.9 |
| 20260830220004 | 88 | 287 | 4.0 | 12.0 | 0.00 | 0.00 | 0.00 | 27 | 1021.9 |
| 20260830215602 | 88 | 134 | 5.0 | 12.0 | 0.00 | 0.00 | 0.00 | 28 | 1022.0 |
| 20260830215106 | 88 | 244 | 6.0 | 15.0 | 0.00 | 0.00 | 0.00 | 28 | 1022.0 |
| 20260830214508 | 88 | 225 | 8.0 | 15.0 | 0.00 | 0.00 | 0.00 | 28 | 1022.0 |
| 20260830214101 | 88 | 186 | 8.0 | 13.0 | 0.00 | 0.00 | 0.00 | 29 | 1022.2 |
| 20260830213504 | 87 | 138 | 7.0 | 13.0 | 0.00 | 0.00 | 0.00 | 30 | 1022.4 |
| 20260830213106 | 87 | 115 | 6.0 | 13.0 | 0.00 | 0.00 | 0.00 | 30 | 1022.5 |
| 20260830212558 | 87 | 136 | 8.0 | 14.0 | 0.00 | 0.00 | 0.00 | 30 | 1022.5 |
| 20260830212041 | 88 | 175 | 7.0 | 12.0 | 0.00 | 0.00 | 0.00 | 30 | 1022.5 |
| 20260830211555 | 87 | 123 | 6.0 | 12.0 | 0.00 | 0.00 | 0.00 | 31 | 1022.6 |
| 20260830211056 | 87 | 159 | 6.0 | 9.0 | 0.00 | 0.00 | 0.00 | 31 | 1022.6 |
| 20260830210607 | 87 | 137 | 3.0 | 11.0 | 0.00 | 0.00 | 0.00 | 31 | 1022.6 |
| 20260830210104 | 87 | 112 | 4.0 | 12.0 | 0.00 | 0.00 | 0.00 | 30 | 1022.9 |
| 20260830205504 | 87 | 174 | 8.0 | 13.0 | 0.00 | 0.00 | 0.00 | 31 | 1022.9 |
| 20260830205059 | 87 | 184 | 3.0 | 11.0 | 0.00 | 0.00 | 0.00 | 32 | 1022.9 |
| 20260830204547 | 87 | 155 | 6.0 | 11.0 | 0.00 | 0.00 | 0.00 | 32 | 1023.1 |
| 20260830204056 | 87 | 169 | 7.0 | 11.0 | 0.00 | 0.00 | 0.00 | 32 | 1023.2 |
| 20260830203548 | 86 | 157 | 3.0 | 11.0 | 0.00 | 0.00 | 0.00 | 32 | 1023.4 |
| 20260830203056 | 86 | 167 | 2.0 | 15.0 | 0.00 | 0.00 | 0.00 | 33 | 1023.5 |
| 20260830202603 | 85 | 178 | 4.0 | 15.0 | 0.00 | 0.00 | 0.00 | 33 | 1023.6 |
| 20260830202007 | 84 | 136 | 2.0 | 10.0 | 0.00 | 0.00 | 0.00 | 34 | 1023.7 |
| 20260830201523 | 84 | 131 | 4.0 | 10.0 | 0.00 | 0.00 | 0.00 | 35 | 1023.8 |
| 20260830201019 | 83 | 180 | 3.0 | 10.0 | 0.00 | 0.00 | 0.00 | 35 | 1023.8 |
| 20260830200527 | 82 | 139 | 3.0 | 10.0 | 0.00 | 0.00 | 0.00 | 36 | 1023.8 |
| 20260830200036 | 82 | 157 | 4.0 | 10.0 | 0.00 | 0.00 | 0.00 | 35 | 1023.8 |
| 20260830195543 | 82 | 149 | 6.0 | 10.0 | 0.00 | 0.00 | 0.00 | 35 | 1023.8 |
| 20260830195051 | 82 | 127 | 5.0 | 10.0 | 0.00 | 0.00 | 0.00 | 36 | 1023.8 |
| 20260830194559 | 83 | 126 | 5.0 | 9.0 | 0.00 | 0.00 | 0.00 | 36 | 1023.9 |
| 20260830194002 | 83 | 150 | 4.0 | 10.0 | 0.00 | 0.00 | 0.00 | 36 | 1024.0 |
| 20260830193559 | 83 | 211 | 3.0 | 10.0 | 0.00 | 0.00 | 0.00 | 36 | 1024.0 |
| 20260830193009 | 83 | 180 | 4.0 | 9.0 | 0.00 | 0.00 | 0.00 | 35 | 1024.1 |
| 20260830192600 | 83 | 167 | 4.0 | 9.0 | 0.00 | 0.00 | 0.00 | 36 | 1024.1 |
| 20260830192053 | 82 | 31 | 2.0 | 9.0 | 0.00 | 0.00 | 0.00 | 37 | 1024.0 |
| 20260830191558 | 82 | 45 | 3.0 | 9.0 | 0.00 | 0.00 | 0.00 | 38 | 1024.1 |
| 20260830191054 | 82 | 47 | 1.0 | 8.0 | 0.00 | 0.00 | 0.00 | 39 | 1024.1 |
| 20260830190559 | 81 | 117 | 1.0 | 8.0 | 0.00 | 0.00 | 0.00 | 38 | 1024.3 |
| 20260830190050 | 81 | 126 | 2.0 | 8.0 | 0.00 | 0.00 | 0.00 | 38 | 1024.3 |
| 20260830185539 | 80 | 118 | 3.0 | 7.0 | 0.00 | 0.00 | 0.00 | 39 | 1024.5 |
| 20260830185046 | 80 | 46 | 2.0 | 7.0 | 0.00 | 0.00 | 0.00 | 41 | 1024.5 |
| 20260830184555 | 80 | 34 | 0.0 | 6.0 | 0.00 | 0.00 | 0.00 | 41 | 1024.6 |
| 20260830184104 | 80 | 90 | 2.0 | 6.0 | 0.00 | 0.00 | 0.00 | 41 | 1024.6 |
| 20260830183555 | 79 | 192 | 1.0 | 7.0 | 0.00 | 0.00 | 0.00 | 41 | 1024.6 |
| 20260830183105 | 79 | 148 | 4.0 | 7.0 | 0.00 | 0.00 | 0.00 | 42 | 1024.6 |
| 20260830182556 | 79 | 141 | 1.0 | 6.0 | 0.00 | 0.00 | 0.00 | 42 | 1024.7 |
| 20260830182104 | 78 | 101 | 2.0 | 6.0 | 0.00 | 0.00 | 0.00 | 43 | 1024.8 |
| 20260830181557 | 78 | 129 | 3.0 | 6.0 | 0.00 | 0.00 | 0.00 | 45 | 1024.8 |
| 20260830181105 | 78 | 157 | 1.0 | 9.0 | 0.00 | 0.00 | 0.00 | 45 | 1024.9 |
| 20260830180504 | 78 | 152 | 1.0 | 9.0 | 0.00 | 0.00 | 0.00 | 45 | 1024.9 |
| 20260830180107 | 78 | 182 | 2.0 | 7.0 | 0.00 | 0.00 | 0.00 | 46 | 1025.1 |
| 20260830175500 | 77 | 115 | 3.0 | 7.0 | 0.00 | 0.00 | 0.00 | 46 | 1025.1 |
| 20260830175058 | 77 | 187 | 3.0 | 7.0 | 0.00 | 0.00 | 0.00 | 46 | 1025.2 |
| 20260830174502 | 77 | 159 | 3.0 | 6.0 | 0.00 | 0.00 | 0.00 | 47 | 1025.2 |
| 20260830174059 | 77 | 166 | 0.0 | 5.0 | 0.00 | 0.00 | 0.00 | 47 | 1025.3 |
| 20260830173551 | 76 | 157 | 3.0 | 7.0 | 0.00 | 0.00 | 0.00 | 47 | 1025.3 |
| 20260830173101 | 76 | 146 | 2.0 | 7.0 | 0.00 | 0.00 | 0.00 | 47 | 1025.4 |
| 20260830172551 | 76 | 107 | 3.0 | 7.0 | 0.00 | 0.00 | 0.00 | 47 | 1025.4 |
| 20260830172044 | 76 | 140 | 2.0 | 6.0 | 0.00 | 0.00 | 0.00 | 47 | 1025.5 |
| 20260830171555 | 76 | 96 | 1.0 | 5.0 | 0.00 | 0.00 | 0.00 | 48 | 1025.5 |
| 20260830171046 | 76 | 150 | 3.0 | 5.0 | 0.00 | 0.00 | 0.00 | 49 | 1025.5 |
| 20260830170533 | 76 | 162 | 3.0 | 6.0 | 0.00 | 0.00 | 0.00 | 49 | 1025.6 |
| 20260830170042 | 75 | 143 | 2.0 | 9.0 | 0.00 | 0.00 | 0.00 | 50 | 1025.6 |
| 20260830165534 | 75 | 136 | 3.0 | 8.0 | 0.00 | 0.00 | 0.00 | 50 | 1025.7 |
| 20260830165045 | 75 | 82 | 3.0 | 6.0 | 0.00 | 0.00 | 0.00 | 50 | 1025.6 |
| 20260830164553 | 75 | 159 | 3.0 | 9.0 | 0.00 | 0.00 | 0.00 | 51 | 1025.6 |
| 20260830164058 | 74 | 180 | 5.0 | 9.0 | 0.00 | 0.00 | 0.00 | 51 | 1025.5 |
| 20260830163504 | 74 | 111 | 4.0 | 9.0 | 0.00 | 0.00 | 0.00 | 53 | 1025.5 |
| 20260830163019 | 74 | 117 | 4.0 | 9.0 | 0.00 | 0.00 | 0.00 | 53 | 1025.4 |
| 20260830162604 | 73 | 130 | 3.0 | 9.0 | 0.00 | 0.00 | 0.00 | 53 | 1025.4 |
| 20260830162007 | 73 | 128 | 3.0 | 9.0 | 0.00 | 0.00 | 0.00 | 54 | 1025.3 |
| 20260830161514 | 72 | 123 | 4.0 | 9.0 | 0.00 | 0.00 | 0.00 | 55 | 1025.3 |
| 20260830161022 | 72 | 112 | 4.0 | 10.0 | 0.00 | 0.00 | 0.00 | 55 | 1025.4 |
| 20260830160530 | 72 | 135 | 5.0 | 10.0 | 0.00 | 0.00 | 0.00 | 55 | 1025.3 |
| 20260830160039 | 71 | 68 | 4.0 | 9.0 | 0.00 | 0.00 | 0.00 | 56 | 1025.2 |
| 20260830155548 | 71 | 108 | 5.0 | 9.0 | 0.00 | 0.00 | 0.00 | 56 | 1025.3 |
| 20260830155057 | 71 | 116 | 4.0 | 11.0 | 0.00 | 0.00 | 0.00 | 57 | 1025.2 |
| 20260830154601 | 71 | 138 | 5.0 | 11.0 | 0.00 | 0.00 | 0.00 | 58 | 1025.2 |